Location: La Oliva
(42.2466°N, 2.9955°E)
Time: 10:59:51
(UTC+00:00)

SL-16 R/B - Pass Details

Date: 22 April 2021
Orbit: 840 x 849 km, 71.0° (Epoch: 10 May)

Event Time Altitude Azimuth Distance (km) Brightness Sun altitude
Rises 21:16:31 0° 333° (NNW) 3,419 6.6 -25.3°
Reaches altitude 10° 21:18:59 10° 332° (NNW) 2,479 5.6 -25.6°
Maximum altitude 21:24:39 73° 249° (WSW) 887 2.2 -26.3°
Enters shadow 21:25:18 65° 202° (SSW) 925 2.2 -26.4°
